GFSGBSN_700_rhum_132.txt.gz
RH
34 33 32 38 50 70 79 80 86 80 82 96 91 85 84 82 83 77 70 79 76 69 62 61 62 60 57 41 27 26 17 18 15 8 5 2 2 18 16 16 16 16 16 16 15 14 13
12 12 12 13 13 14 17 25 38 48 58 90 93 85 93 83 86 84 77 71 81 78 72 63 63 60 55 38 34 28 22 17 15 8 4 2 3 5 5 8 16 13 13 10 6 10 17
12 11 10 10 9 9 9 10 11 13 13 14 34 27 76 94 94 83 86 79 80 80 76 72 63 66 59 40 39 39 27 15 8 6 4 6 6 6 11 10 21 15 9 8 12 18 16
9 8 8 8 8 7 7 7 7 7 8 9 10 12 19 31 65 90 84 81 87 84 79 78 70 67 66 55 47 39 26 13 9 7 7 7 8 9 8 10 9 9 22 22 18 16 16
8 8 8 8 7 7 7 7 7 8 7 7 8 9 10 12 28 77 96 76 89 89 86 85 80 72 70 52 48 33 16 9 7 8 10 9 10 12 13 27 28 20 20 18 16 15 12
10 9 8 9 8 8 8 8 7 8 8 9 9 10 12 13 18 19 53 100 80 70 89 84 91 84 56 50 47 37 20 8 8 12 11 15 18 23 31 28 21 19 17 16 14 12 14
11 11 10 11 11 10 11 10 10 10 10 12 13 12 15 18 30 24 36 66 81 95 77 77 85 69 52 48 54 26 9 12 11 11 14 37 33 26 22 26 26 23 16 16 16 17 20
11 11 11 11 11 12 12 12 12 11 11 10 11 14 17 26 32 42 34 94 72 85 92 82 86 92 84 54 64 56 41 21 21 28 33 34 32 26 25 22 14 21 23 23 22 22 23
10 9 8 7 6 6 6 5 5 4 4 3 3 3 4 12 33 49 61 85 86 75 92 84 87 89 77 66 52 33 37 28 26 37 33 32 28 33 30 29 28 27 28 26 28 29 28
5 4 4 4 3 3 3 2 2 2 2 2 2 2 2 3 8 25 41 52 99 100 98 74 77 66 62 65 64 49 33 34 38 37 34 33 31 31 35 31 28 28 32 39 37 35 30
3 3 3 3 3 3 3 3 3 3 3 3 3 3 3 2 9 12 25 72 98 100 92 71 79 64 54 54 47 39 37 36 32 45 41 36 33 42 37 30 37 36 41 46 47 42 38
4 4 4 4 4 4 4 4 4 3 3 3 3 3 3 3 5 6 14 100 100 99 95 79 64 61 51 56 46 43 44 35 43 46 46 38 45 43 38 37 44 45 43 50 50 44 41
5 5 5 5 5 4 5 5 4 4 4 3 3 4 2 6 7 8 14 99 100 97 74 68 66 60 52 51 45 47 60 57 47 55 48 42 38 42 43 43 46 56 57 48 45 47 39
6 6 6 6 6 5 5 5 5 4 4 4 3 5 3 4 16 14 35 99 98 72 66 62 60 56 53 50 46 45 52 53 49 45 48 42 39 40 45 43 39 54 47 45 48 33 34
8 8 8 8 7 6 6 5 3 3 3 4 5 6 5 8 31 22 58 100 92 71 62 77 48 44 46 44 53 50 55 52 52 51 61 53 38 43 45 46 46 51 50 52 51 50 47
12 10 9 7 7 6 4 3 4 3 3 4 5 8 7 33 74 51 100 90 94 84 74 72 46 42 47 43 59 61 60 49 48 58 64 72 71 49 46 50 51 54 59 62 55 58 53
13 12 9 5 5 4 4 5 4 4 4 18 62 96 78 79 100 99 100 79 99 88 95 97 50 56 50 56 63 68 54 54 63 68 67 80 82 57 52 60 54 66 61 60 63 62 66
14 12 9 6 6 6 5 4 4 10 66 100 98 100 99 100 98 99 98 87 92 98 84 57 56 53 52 57 62 62 62 56 73 73 87 82 88 88 60 54 58 74 73 81 94 62 55
18 16 13 10 9 6 4 15 27 52 67 81 100 98 99 100 100 98 100 100 95 98 74 64 58 57 65 68 60 58 61 85 83 80 84 88 79 68 62 65 63 60 81 73 83 94 90
26 20 16 14 13 6 11 44 87 98 99 100 100 96 98 98 100 100 100 88 98 94 87 84 72 72 72 78 65 38 30 79 96 76 86 99 87 82 98 94 85 72 76 84 82 84 82
36 25 18 18 15 16 52 77 89 97 97 96 99 94 98 98 98 99 97 94 95 89 85 77 92 56 43 59 51 53 77 93 89 75 96 87 85 97 87 91 66 56 61 79 100 98 98
53 38 26 29 44 73 99 93 96 97 96 97 97 96 97 91 98 98 98 97 93 86 77 80 80 59 40 42 28 23 39 89 82 90 80 85 99 86 79 71 89 92 78 77 100 100 100
65 45 37 46 65 96 100 96 96 97 98 97 99 98 85 85 99 92 97 92 80 92 87 78 59 80 80 61 47 44 81 76 91 84 78 94 97 98 90 82 98 99 88 78 97 97 99
67 58 59 63 72 97 100 96 97 97 97 97 98 97 88 94 99 92 92 78 91 97 92 80 60 77 67 56 59 69 89 97 100 98 95 82 91 93 82 95 91 84 77 86 96 84 78
76 73 69 70 79 95 97 97 96 96 96 96 96 97 96 98 100 97 96 95 96 95 92 80 78 74 52 46 61 80 82 86 78 84 81 93 97 87 75 85 98 88 76 75 91 88 76
82 77 71 75 86 91 96 96 95 96 96 96 97 95 93 96 95 91 93 94 94 91 95 94 80 70 61 68 80 62 68 63 66 71 90 85 84 88 76 75 77 99 81 95 100 98 75
84 79 76 78 84 96 96 96 90 93 96 96 97 96 95 97 96 95 95 93 93 96 93 82 62 61 42 67 79 53 46 43 70 72 83 81 84 83 73 65 98 98 100 89 97 96 74
88 83 82 91 94 96 97 96 96 97 96 95 96 97 94 94 96 96 94 94 97 75 66 63 61 44 38 63 61 46 55 61 65 62 89 73 79 77 70 67 93 90 86 99 95 92 78
84 80 84 94 95 96 96 97 96 95 95 95 97 96 97 88 91 94 91 95 97 86 90 59 43 32 26 52 48 46 56 85 61 68 58 70 74 95 78 79 80 81 77 88 92 79 78

GFSGBSN_700_rhum_135.txt.gz
RH
43 43 53 56 66 70 68 75 82 82 80 86 85 76 77 87 90 87 77 71 75 64 73 74 66 57 49 52 48 41 34 27 20 16 10 6 4 4 6 7 12 12 14 14 14 13 14
14 15 16 16 15 14 14 15 19 32 44 55 61 50 62 67 74 71 86 80 76 77 70 74 70 66 57 52 39 41 38 36 28 18 11 7 4 4 5 6 8 10 12 13 10 7 10
13 13 13 12 13 12 11 11 11 12 13 12 13 14 14 16 25 18 33 34 70 81 83 78 77 72 63 57 52 46 48 39 34 18 11 8 8 8 9 10 12 13 15 12 9 11 17
11 11 11 10 10 10 9 8 8 8 8 8 8 8 9 10 11 12 23 37 63 74 78 86 84 70 58 60 52 50 50 44 29 19 10 8 9 10 9 11 13 14 13 14 17 16 17
10 10 9 9 8 8 8 8 8 8 7 7 7 7 7 8 9 10 10 13 34 32 83 67 86 79 52 46 44 46 47 33 22 12 9 12 14 13 14 14 13 18 18 18 20 17 15
9 9 9 9 8 8 8 8 8 8 8 8 8 10 10 11 12 11 10 10 21 38 57 69 76 76 64 59 47 41 43 36 21 13 11 16 17 19 15 26 23 24 24 22 17 15 13
10 10 9 9 9 9 8 9 9 10 10 10 10 12 14 14 14 17 16 17 26 31 17 47 84 84 78 66 60 49 51 45 15 13 19 17 26 26 19 26 28 28 24 20 12 7 17
11 10 11 11 11 11 11 11 12 13 13 13 13 12 13 15 17 19 23 27 30 71 32 28 25 74 72 87 64 64 60 54 50 37 24 29 37 29 23 28 27 25 20 16 11 22 23
12 12 12 11 11 11 10 10 9 9 8 8 8 7 7 6 6 11 20 33 66 81 69 26 19 15 30 78 86 79 64 57 44 33 30 35 32 32 32 30 27 24 17 23 28 27 25
10 11 10 10 9 8 7 6 5 4 3 3 2 2 3 2 4 5 6 15 45 77 98 32 35 25 20 57 81 76 64 47 41 40 30 33 30 31 32 32 29 28 25 32 29 33 36
6 6 5 5 5 4 4 3 3 3 3 3 3 3 3 3 3 3 5 12 33 87 98 51 68 64 51 50 46 45 50 36 40 38 41 39 34 32 33 33 31 29 32 39 37 33 45
5 4 4 4 3 3 3 3 4 4 4 4 4 4 3 3 3 3 6 18 54 96 92 66 72 67 59 56 58 53 36 37 39 41 41 46 38 44 35 34 33 35 34 32 26 50 64
5 4 4 4 4 4 4 5 5 5 5 5 6 5 4 4 4 10 22 37 100 95 62 57 57 62 57 52 50 48 40 37 40 50 46 36 46 38 44 42 40 40 39 61 67 72 69
6 5 5 5 5 5 5 6 6 6 6 7 6 6 6 4 7 10 23 98 92 51 64 53 58 64 63 57 52 49 46 50 57 50 48 52 49 36 32 43 32 38 45 59 69 64 62
8 7 6 6 6 6 6 6 6 7 7 8 7 7 5 4 13 20 60 100 75 13 35 51 46 63 58 58 52 51 45 47 52 54 52 60 56 50 38 36 40 44 49 53 52 55 60
11 10 9 9 9 8 8 8 8 7 7 8 10 10 4 7 31 64 100 96 25 7 39 56 73 77 55 49 52 50 47 49 47 50 62 58 67 55 45 45 42 46 58 58 60 70 77
14 12 12 10 9 9 8 6 4 4 7 11 12 28 3 10 97 99 100 43 38 23 61 68 51 80 49 46 46 50 54 52 53 51 65 71 65 52 56 48 46 50 52 56 60 66 91
20 16 14 12 10 8 6 4 3 3 9 9 12 33 10 50 100 98 98 39 42 54 49 80 95 95 70 46 46 51 54 56 62 52 67 69 72 75 55 54 52 58 63 64 64 74 76
26 22 16 13 11 9 6 6 4 5 6 9 27 54 85 83 100 97 88 85 82 67 80 78 90 80 85 61 52 56 57 58 62 74 64 60 79 78 49 60 68 69 81 88 82 84 82
29 25 21 18 14 11 9 7 6 4 20 68 93 100 99 98 97 85 72 100 91 80 86 85 77 67 68 59 58 59 59 70 70 83 67 72 81 65 94 88 88 69 77 72 65 79 81
33 29 25 26 18 14 11 11 10 84 89 85 100 98 90 98 98 98 99 100 96 96 93 90 80 63 62 60 65 60 65 88 95 82 85 88 93 85 96 93 92 94 76 51 53 66 93
50 51 40 33 21 15 14 19 51 100 100 99 96 96 97 87 100 98 97 97 90 83 86 95 78 75 69 69 59 68 83 87 65 47 75 94 80 81 81 90 79 66 70 73 68 98 95
81 85 58 36 24 27 21 41 90 100 98 96 96 96 97 97 96 96 95 79 72 91 95 83 78 72 70 69 63 42 48 49 58 82 85 84 72 84 77 66 81 99 58 68 81 90 99
80 88 68 53 46 39 46 61 90 100 97 96 94 94 98 94 87 81 95 85 71 98 92 84 92 81 76 60 63 70 58 75 90 96 83 65 77 84 90 94 97 69 71 71 86 74 82
90 83 76 68 62 58 61 81 93 99 97 97 97 96 84 86 79 90 96 74 92 92 97 95 94 97 87 76 75 99 99 95 92 97 94 89 89 93 85 98 82 76 69 69 72 78 66
97 88 80 70 64 71 73 92 89 96 98 96 96 96 96 96 89 89 100 98 88 94 97 96 94 89 86 67 83 83 84 75 82 83 91 85 91 93 85 86 95 89 73 76 97 88 60
98 87 75 72 76 78 89 100 93 93 97 92 95 95 97 96 96 96 86 87 94 94 93 96 91 97 92 66 75 61 54 40 69 72 68 85 76 75 72 82 99 90 80 100 100 75 77
95 80 75 79 77 90 100 94 93 96 96 94 91 95 95 97 95 98 95 96 96 96 92 92 96 96 85 72 68 54 49 56 65 75 79 83 79 83 78 84 88 90 87 91 79 90 90
90 79 76 87 100 98 97 86 95 97 97 97 98 97 98 97 91 97 97 98 97 93 96 95 82 74 60 58 52 53 58 60 70 85 92 88 82 81 81 71 73 73 78 76 74 94 86

GFSGBSN_700_rhum_138.txt.gz
RH
96 92 88 82 70 62 62 68 76 79 77 75 74 73 77 74 68 74 83 81 81 75 59 64 58 62 62 56 47 39 40 38 34 32 25 19 14 10 7 7 9 13 13 14 12 12 12
65 58 47 28 20 27 35 32 29 26 24 27 31 37 42 38 31 25 39 54 62 60 61 46 56 55 58 55 49 48 44 42 40 35 28 20 14 9 8 8 8 11 12 12 12 13 13
17 17 14 13 13 13 13 12 12 12 13 13 13 12 12 11 11 11 11 11 12 15 21 39 40 46 44 53 46 51 47 44 46 42 29 21 13 10 12 10 11 12 14 15 14 13 10
12 12 12 12 12 12 12 12 12 11 10 9 9 8 8 8 8 8 8 8 8 9 10 30 42 28 23 49 45 26 40 39 40 37 23 14 11 10 12 13 14 14 15 14 18 18 17
13 12 12 11 11 10 10 9 9 9 8 8 8 8 8 8 8 8 7 7 7 8 8 10 16 38 27 27 45 44 41 41 42 36 21 11 10 13 14 15 16 16 18 21 19 18 17
12 11 11 10 10 9 9 9 8 8 8 8 8 8 8 9 9 9 9 8 9 8 9 9 11 18 38 38 35 43 46 48 46 39 26 16 12 17 20 19 17 21 25 24 21 19 16
11 11 10 10 10 10 10 9 10 10 10 10 9 9 9 11 11 11 11 12 13 14 10 10 10 15 35 45 52 54 55 55 52 44 36 18 25 25 24 24 23 26 27 28 23 21 13
12 12 12 12 12 11 12 12 12 12 12 12 12 12 12 13 13 14 15 15 18 19 15 13 13 12 11 26 68 86 52 57 61 57 51 42 36 34 29 30 29 29 29 28 25 19 14
13 12 12 12 12 12 12 12 12 12 11 11 11 11 11 10 9 8 8 9 11 15 19 9 10 10 10 12 12 34 71 71 68 66 56 46 40 33 32 30 31 31 28 26 23 22 24
14 13 13 13 12 12 11 10 10 9 8 6 6 6 5 4 5 5 5 6 7 12 28 11 10 16 17 18 16 19 55 64 76 70 59 44 39 37 32 37 34 32 32 30 28 31 33
12 11 11 10 9 7 7 6 6 5 4 4 3 3 3 3 4 4 5 5 7 12 75 23 48 63 43 36 35 38 39 65 68 62 43 41 39 36 37 32 35 33 32 30 33 38 39
7 7 7 6 5 5 4 3 3 3 4 4 4 4 4 4 4 4 4 7 13 59 90 24 58 57 57 45 43 58 53 49 55 49 38 38 44 39 41 40 35 35 34 33 36 35 59
6 5 5 5 4 4 4 4 4 5 5 6 6 5 4 4 6 7 9 19 48 83 26 32 30 50 52 55 51 63 53 49 46 40 38 40 42 43 42 42 43 38 38 45 67 76 68
7 6 5 5 4 4 4 5 6 6 6 7 7 7 6 6 7 10 27 81 70 12 11 31 62 71 68 61 55 54 53 36 37 39 40 51 48 38 36 42 44 43 40 47 74 75 64
11 9 7 6 5 5 6 6 7 7 8 8 8 7 7 7 12 24 91 90 15 7 14 6 46 64 62 69 62 54 53 50 45 45 55 55 56 45 52 46 40 44 44 42 55 56 62
15 12 11 9 7 6 6 7 7 8 9 10 9 8 7 10 32 90 100 48 16 4 30 35 40 32 49 59 60 56 54 51 49 48 52 54 52 42 44 41 44 41 50 59 61 73 78
20 17 14 12 10 10 9 9 10 10 11 12 11 9 8 14 42 100 94 40 12 10 41 50 65 60 64 70 61 54 52 50 49 46 48 54 66 60 57 50 45 50 61 55 59 63 90
20 20 19 16 14 12 12 11 11 11 12 11 10 10 18 27 44 68 73 5 40 59 50 55 39 32 52 63 68 49 52 52 51 52 52 51 70 70 66 67 56 59 50 46 54 66 71
20 20 22 22 19 16 14 12 11 10 11 14 13 11 21 98 96 66 28 49 56 71 64 64 64 58 53 91 78 47 46 50 53 60 62 58 79 92 70 58 51 95 69 67 66 76 82
23 24 29 27 23 20 17 14 12 10 11 15 16 30 85 100 85 89 74 43 57 62 77 59 72 87 54 65 83 62 55 53 52 64 67 74 79 88 72 65 73 67 80 80 88 87 80
28 26 28 28 26 23 21 17 14 12 11 16 28 37 51 84 87 49 95 75 64 95 96 96 80 87 88 84 84 78 66 65 64 67 79 78 84 88 86 96 76 90 86 90 93 76 57
36 34 34 35 30 27 25 19 16 16 44 92 88 94 88 94 100 91 100 97 100 96 98 83 83 72 87 94 75 70 59 63 70 80 98 89 93 89 83 98 80 82 82 82 89 73 53
46 43 84 85 54 41 29 21 19 18 41 99 98 98 97 95 97 98 98 92 86 99 97 92 67 80 97 80 69 66 72 77 80 88 92 74 73 93 90 77 93 99 60 58 53 56 67
61 80 90 98 81 48 33 26 22 24 49 95 98 93 88 91 90 88 97 98 97 96 90 82 85 81 86 78 71 74 87 75 63 95 80 74 78 87 81 100 96 67 65 66 68 78 67
74 84 87 95 91 62 43 30 28 43 78 86 97 96 92 88 93 96 96 96 96 97 97 86 93 88 90 90 90 91 75 68 82 93 80 84 83 92 86 97 76 70 73 67 66 67 59
84 84 90 95 85 70 56 44 41 50 74 92 98 94 98 97 83 94 93 98 95 97 98 95 98 93 96 89 93 94 93 81 88 89 88 97 98 97 98 91 92 79 72 81 78 65 56
96 94 96 88 77 63 58 59 57 65 83 91 94 98 98 96 98 97 94 96 96 95 88 95 93 97 94 93 92 84 72 67 68 83 79 97 97 96 92 96 78 62 74 72 82 61 61
92 97 95 82 71 67 68 71 73 84 86 85 88 90 96 96 97 92 88 82 76 89 74 86 94 96 95 97 92 84 52 45 47 60 68 83 94 92 88 84 81 61 80 79 71 62 60
94 97 81 78 75 72 82 87 83 86 87 89 93 91 96 99 87 88 97 98 96 93 98 93 88 89 88 94 87 68 64 71 68 77 84 82 77 71 70 62 62 67 67 58 60 54 67

GFSGBSN_700_rhum_141.txt.gz
RH
89 96 88 91 91 92 89 83 76 67 54 59 72 72 68 67 63 70 66 58 62 67 62 49 40 29 35 38 54 52 44 38 41 38 34 30 21 16 11 8 6 7 8 10 11 12 12
97 94 93 84 91 85 70 53 39 39 44 43 41 31 28 27 31 28 24 16 13 23 22 21 16 19 18 24 34 42 48 46 41 43 41 30 24 17 12 9 8 10 11 11 12 12 12
31 36 42 49 45 32 19 15 14 15 15 13 13 12 12 12 11 10 10 10 10 9 9 9 9 9 10 21 21 24 28 39 40 35 43 39 26 18 14 11 11 12 14 14 15 15 14
14 14 14 14 14 14 13 14 12 12 13 12 12 11 10 9 9 8 8 8 8 8 8 8 8 8 8 16 12 14 24 21 24 33 38 33 21 12 10 12 13 15 16 16 16 18 16
13 13 12 12 12 12 13 12 12 11 11 11 10 9 9 8 8 8 8 8 8 8 8 8 8 8 8 12 17 18 27 38 37 36 38 36 24 16 16 15 16 16 16 16 18 19 18
16 15 14 14 13 12 12 11 11 10 10 9 9 9 8 8 8 8 8 8 8 8 8 8 8 9 13 14 18 25 31 36 45 47 41 33 22 17 16 20 21 20 19 23 22 20 19
16 15 14 13 12 11 11 10 10 10 9 9 9 9 9 9 9 9 9 9 10 11 10 10 10 10 10 11 10 31 41 46 41 48 47 41 30 29 31 26 25 22 28 27 23 24 21
14 14 13 12 12 12 12 13 11 11 11 11 10 10 11 11 11 10 11 11 10 12 12 10 11 11 11 16 18 18 20 32 37 41 52 44 45 48 49 32 31 29 30 28 27 26 25
16 17 15 14 14 13 13 13 13 13 12 12 11 12 12 12 12 11 11 10 9 9 8 8 9 9 10 11 11 12 32 37 36 46 63 69 60 45 42 37 34 35 31 29 29 28 25
16 16 15 14 14 13 13 12 12 12 11 11 11 10 9 9 7 7 6 6 6 5 8 8 9 13 21 17 14 13 13 31 68 46 54 60 61 59 51 38 35 36 32 32 33 32 31
14 14 14 13 13 13 12 12 12 12 11 10 9 8 6 6 5 5 5 5 4 5 25 20 35 37 29 30 33 33 33 40 53 54 55 52 51 41 37 38 37 33 35 36 34 33 39
14 14 14 13 12 10 9 9 8 7 7 6 5 4 4 4 4 4 4 4 4 12 36 16 35 36 30 34 41 51 44 54 63 67 62 60 59 46 40 39 41 43 38 37 34 43 54
10 9 9 8 8 6 6 5 4 4 4 4 4 4 4 4 5 5 5 7 13 27 14 20 30 26 45 50 43 58 64 57 54 53 54 52 52 48 43 43 42 44 42 45 60 74 51
7 7 7 6 6 6 5 4 4 4 4 5 6 5 5 6 6 6 7 13 21 9 5 13 31 51 58 56 52 50 66 57 50 51 47 45 44 42 42 42 43 43 45 44 66 70 69
9 8 7 6 6 5 5 5 4 5 6 6 7 7 7 8 8 9 11 20 7 5 5 5 17 50 54 43 59 52 54 56 52 50 45 44 52 50 52 57 52 44 46 50 47 54 70
15 14 12 9 7 6 6 6 6 6 7 8 8 9 10 11 12 14 19 10 9 6 14 19 25 15 28 38 48 59 57 41 45 51 42 41 49 53 49 48 44 55 47 47 52 76 81
21 20 17 14 11 9 7 6 6 7 8 8 8 9 10 17 20 36 26 10 9 8 12 22 42 50 29 56 68 59 54 49 49 47 48 50 54 55 55 58 51 54 59 59 68 60 83
36 26 23 20 17 14 11 8 8 8 9 10 11 13 24 21 26 41 28 15 27 29 26 19 22 27 54 64 77 75 66 65 52 50 49 48 51 62 58 57 80 65 68 59 97 74 69
49 36 29 26 25 22 17 13 12 13 13 14 15 18 34 67 44 25 32 22 27 38 64 47 31 25 24 30 38 38 37 47 55 50 54 53 62 69 67 63 66 88 86 98 97 75 63
34 59 47 30 35 30 25 20 17 17 16 16 32 98 99 99 78 67 71 21 36 31 41 68 55 68 68 70 76 81 76 60 52 48 55 63 63 69 70 70 82 81 83 87 93 96 86
92 78 39 30 38 37 31 27 23 20 19 24 27 68 86 52 94 98 90 35 55 83 89 67 65 73 84 89 74 55 56 92 60 55 60 61 73 90 88 94 96 92 89 99 96 96 90
98 66 39 32 34 46 34 26 27 24 22 75 54 79 99 91 68 72 67 57 97 77 99 88 76 53 62 60 67 79 78 55 86 71 69 76 88 97 97 90 85 96 98 95 88 61 82
97 88 80 49 40 68 46 35 30 30 26 75 99 100 98 100 92 100 72 57 60 83 95 79 83 85 89 88 77 57 69 95 94 85 81 90 97 95 92 76 92 97 53 72 64 62 67
96 95 76 61 94 100 78 49 37 32 36 45 97 99 99 95 93 98 96 94 95 100 95 92 95 97 65 91 95 98 96 98 95 94 95 95 97 96 93 89 96 64 59 61 63 61 61
95 89 84 84 88 95 96 69 45 37 38 48 60 100 96 97 94 87 76 88 92 97 99 99 90 84 97 98 99 97 97 94 87 84 92 95 96 97 87 89 67 61 67 69 68 61 63
95 92 89 91 94 96 94 80 59 44 35 42 73 100 100 100 84 72 88 94 100 97 98 94 93 100 98 97 100 96 88 82 83 84 79 88 100 98 96 89 93 73 70 64 68 59 56
96 92 81 88 94 94 91 75 58 40 42 57 81 97 100 99 75 95 97 93 92 97 95 80 89 99 95 97 98 94 96 90 93 87 86 88 96 98 93 96 80 69 61 57 68 56 58
95 94 91 93 94 90 78 65 54 46 62 71 81 97 98 98 87 99 99 90 90 98 90 94 99 97 98 98 97 94 90 88 80 65 66 69 87 93 97 96 84 65 59 65 54 56 54
94 92 96 96 98 84 68 61 59 62 71 83 82 94 97 97 97 91 93 97 96 98 95 94 82 89 93 89 88 94 70 65 66 63 76 76 77 76 62 60 52 53 59 59 57 44 45